Regional Weather Roundup
Issued by NWS

Home | Current Version | Previous Version | Graphics & Text | Print | Product List | Glossary On
Versions: 1 2 3 4 5 6 7 8 9 10 11 12 13 14 15 16 17 18 19 20 21 22 23 24 25 26 27 28 29 30 31 32 33 34 35 36 37 38 39 40 41 42 43 44 45 46 47 48 49 50
000
ASUS43 KIND 012109
RWRIN

WEATHER ROUNDUP FOR INDIANA
NATIONAL WEATHER SERVICE INDIANAPOLIS IN
500 PM EDT WED JUL 01 2015

NOTE: "FAIR" INDICATES FEW OR NO CLOUDS BELOW 12,000 FEET WITH NO
SIGNIFICANT WEATHER AND/OR OBSTRUCTIONS TO VISIBILITY.

* - STATION DOES NOT REPORT WEATHER SUCH AS PRECIPITATION OR FOG.

+ - STATION NOT QUALITY CONTROLLED BY THE NATIONAL WEATHER SERVICE.
    USE DATA WITH CAUTION...ESPECIALLY DEWPOINT AND RELATIVE
    HUMIDITY OBSERVATIONS.

INZ001>003-010>013-019-020-012200-
NORTHWEST INDIANA

CITY           SKY/WX    TMP DP  RH WIND       PRES   REMARKS
GARY /AIRPORT/ PTSUNNY   63  54  72 NE12      29.98S
KNOX *+        MOSUNNY   68  52  56 N9G18     29.94F
LA PORTE +     MOSUNNY   66  54  66 N8        29.97S
MICHIGAN CITY+ MOSUNNY   61  50  67 N8        29.98S
MONTICELLO +   CLOUDY    72  62  72 N7        29.92S
RENSSELAER +   PTSUNNY   70  63  78 N7        29.94S
VALPARAISO     PTSUNNY   66  53  63 N8G16     29.96F

$$

LMZ046-743>745-012200-
SOUTHERN LAKE MICHIGAN

STATION/POSITION TIME  TEMP    WIND        PRES    WAVE
                       AIR SEA DIR/SP/G            HT
                 (UTC) (F)     (DEG/KT/KT) (MB)    (FT)
BURNS HARBOR     2100   60      50/ 13/ 15 1015.6S
MICHIGAN CITY    2100   57      10/ 10/ 13   N/A
5NW MICH CITY    2100   58 65   40/ 10/ 14   N/A     3

$$

INZ004-005-014>016-021>024-012200-
NORTH CENTRAL INDIANA

CITY           SKY/WX    TMP DP  RH WIND       PRES   REMARKS
ELKHART        SUNNY     68  50  52 NW8       29.94F
GOSHEN         SUNNY     70  56  61 W9        29.92F
LOGANSPORT +   CLOUDY    72  55  56 NW3       29.93S
PERU/GRISSOM   PTSUNNY   73  61  67 NW3       29.91F
ROCHESTER +    CLOUDY    73  61  64 NW9       29.93S
SOUTH BEND     SUNNY     67  51  56 NW12      29.96S
WARSAW +         N/A     70  57  64 NW7G13    29.93S

$$

INZ006>009-017-018-025>027-012200-
NORTHEAST INDIANA

CITY           SKY/WX    TMP DP  RH WIND       PRES   REMARKS
ANGOLA *+      MOSUNNY   73  66  78 NW9       29.92S
AUBURN +       MOSUNNY   73  55  53 NW7       29.92F
FORT WAYNE     PTSUNNY   76  59  55 NW9       29.92S
HUNTINGTON +   PTSUNNY   74  58  58 N7        29.92S

$$

INZ028-029-035-036-043>045-051>053-012200-
WEST CENTRAL INDIANA

CITY           SKY/WX    TMP DP  RH WIND       PRES   REMARKS
CRAWFORDSVL +  CLOUDY    69  63  82 CALM      29.91F
GREENCASTLE +  SUNNY     73  61  64 NE5       29.91S
LAFAYETTE      MOSUNNY   75  62  64 CALM      29.90F
TERRE HAUTE    PTSUNNY   77  68  73 E6        29.87F

$$

INZ030>032-037>040-046>048-054>057-064-065-012200-
CENTRAL INDIANA

CITY           SKY/WX    TMP DP  RH WIND       PRES   REMARKS
CP ATTERBURY + PTSUNNY   75  64  69 CALM      29.90F
FISHERS *+     CLOUDY    72  66  83 CALM      29.91F
FRANKFORT +    CLOUDY    74  63  69 CALM      29.94S
GREENWOOD *+   CLOUDY    77  55  47 CALM      29.91F
INDIANAPOLIS   CLOUDY    76  60  57 CALM      29.89F
-EAGLE CREEK   PTSUNNY   76  60  57 NW5       29.90F
KOKOMO *+      CLOUDY    75  61  60 W5        29.91S
MARION +       PTSUNNY   73  59  61 CALM      29.93S
MT COMFORT *+  MOSUNNY   75  55  50 CALM      29.92S
SHELBYVILLE    PTSUNNY   78  62  57 VRB3      29.90F
ZIONSVILLE +   CLOUDY    75  60  59 CALM      29.92F

$$

INZ033-034-041-042-049-050-058-059-012200-
EAST CENTRAL INDIANA

CITY           SKY/WX    TMP DP  RH WIND       PRES   REMARKS
MUNCIE         PTSUNNY   76  62  62 N8        29.91F

$$

INZ060-061-067>069-081>083-085>088-012200-
SOUTHWEST INDIANA

CITY           SKY/WX    TMP DP  RH WIND       PRES   REMARKS
EVANSVILLE     MOSUNNY   82  69  64 VRB3      29.87F HAZE
HUNTINGBURG *+ PTSUNNY   79  68  69 W8        29.89F
WASHINGTON +   PTSUNNY   78  66  67 W6        29.87F

$$

INZ062-063-066-070>080-084-089>092-012200-
SOUTH CENTRAL AND SOUTHEAST INDIANA

CITY           SKY/WX    TMP DP  RH WIND       PRES   REMARKS
BLOOMINGTON    PTSUNNY   75  69  81 S8        29.89F
MADISON *+     PTSUNNY   77  63  61 CALM      29.92F
NORTH VERNON + MOSUNNY   81  63  54 CALM      29.90F
SEYMOUR +      MOSUNNY   81  64  57 CALM      29.89F

$$




USA.gov is the U.S. government's official web portal to all federal, state and local government web resources and services.